This demonstration page uses our WeatherBlox Daily Observations layout. Learn more.

Left ArrowRight Arrow

Hourly Observations for January 16, 2020

Temp ( °F °C ) Dew Point ( °F °C ) Humidity (%) Winds ( mph kmh ) Pressure ( in mb ) Visibility ( mi km ) Precip ( " mm )
12:29 am 00:29 Partly Cloudy -10 -23.3 -17 -27.2 70 70 E 13 20 30.58 1035 10 16 0.00 0.00
12:53 am 00:53 Mostly Cloudy -10 -23.3 -16 -26.7 74 74 E 14 22 30.41 1030 9 14 0.00 0.00
1:34 am 01:34 Cloudy -10 -23.3 -16 -26.7 74 74 E 13 20 30.55 1035 10 16 0.00 0.00
1:53 am 01:53 Mostly Cloudy -10 -23.3 -16 -26.7 74 74 E 9 15 30.41 1030 10 16 0.00 0.00
2:04 am 02:04 Mostly Cloudy -10 -23.3 -16 -26.7 74 74 ENE 10 17 30.55 1035 10 16 0.00 0.00
2:53 am 02:53 Cloudy -10 -23.3 -15 -26.1 78 78 E 6 9 30.41 1030 7 11 0.00 0.00
3:53 am 03:53 Cloudy with Haze -9 -22.8 -15 -26.1 75 75 Calm 30.39 1029 6 10 0.00 0.00
4:15 am 04:15 Partly Cloudy -9 -22.8 -16 -26.7 71 71 E 3 6 30.52 1033 10 16 0.00 0.00
4:53 am 04:53 Clear -10 -23.3 -16 -26.7 74 74 ENE 5 7 30.36 1028 10 16 0.00 0.00
5:53 am 05:53 Clear -11 -23.9 -16 -26.7 78 78 E 5 7 30.35 1028 10 16 0.00 0.00
6:53 am 06:53 Clear -11 -23.9 -17 -27.2 74 74 ENE 6 9 30.33 1027 10 16 0.00 0.00
7:53 am 07:53 Clear -11 -23.9 -17 -27.2 74 74 ENE 6 9 30.33 1027 10 16 0.00 0.00
8:53 am 08:53 Sunny -10 -23.3 -16 -26.7 74 74 ENE 6 9 30.31 1026 10 16 0.00 0.00
9:53 am 09:53 Sunny -9 -22.8 -16 -26.7 71 71 ENE 6 9 30.29 1026 10 16 0.00 0.00
10:53 am 10:53 Sunny -7 -21.7 -15 -26.1 68 68 NE 5 7 30.28 1025 10 16 0.00 0.00
11:53 am 11:53 Sunny -6 -21.1 -14 -25.6 67 67 ENE 5 7 30.23 1024 10 16 0.00 0.00
12:53 pm 12:53 Sunny -5 -20.6 -13 -25 68 68 ENE 6 9 30.19 1023 10 16 0.00 0.00
1:53 pm 13:53 Sunny -5 -20.6 -13 -25 68 68 NE 7 11 30.16 1021 10 16 0.00 0.00
2:53 pm 14:53 Sunny -3 -19.4 -12 -24.4 65 65 ENE 7 11 30.14 1021 10 16 0.00 0.00
3:53 pm 15:53 Sunny -3 -19.4 -11 -23.9 68 68 ENE 12 19 30.10 1019 10 16 0.00 0.00
4:53 pm 16:53 Clear -3 -19.4 -10 -23.3 71 71 ENE 10 17 30.09 1019 10 16 0.00 0.00
5:53 pm 17:53 Clear -3 -19.4 -9 -22.8 75 75 ENE 13 20 30.08 1019 10 16 0.00 0.00
6:53 pm 18:53 Clear -3 -19.4 -9 -22.8 75 75 NE 7 11 30.06 1018 10 16 0.00 0.00
7:53 pm 19:53 Clear -4 -20 -9 -22.8 79 79 Calm 30.05 1018 10 16 0.00 0.00
8:53 pm 20:53 Clear -5 -20.6 -10 -23.3 79 79 N 5 7 30.02 1017 10 16 0.00 0.00
9:53 pm 21:53 Mostly Cloudy -3 -19.4 -8 -22.2 79 79 W 6 9 30.01 1016 10 16 0.00 0.00
10:53 pm 22:53 Cloudy -1 -18.3 -7 -21.7 75 75 WSW 5 7 29.98 1015 10 16 0.00 0.00
11:41 pm 23:41 Mostly Cloudy 0 -17.8 -6 -21.1 76 76 W 9 15 30.12 1020 10 16 0.00 0.00
11:48 pm 23:48 Cloudy 0 -18 -6 -21 78 78 W 9 15 30.11 1020 10 16 0.00 0.00
11:53 pm 23:53 Cloudy -1 -18.3 -6 -21.1 79 79 W 9 15 30.01 1016 10 16 0.00 0.00

Powered by AerisWeather